Погода в Великом Бурлуке

Украина / Харьковская область     50°02′58″N   37°22′59″E
темп.,
°C
ветер,
м/с
пор.,
м/с
влажн.,
%
обл.,
%
осадки,
мм/ч
давл.,
гПа
погр.,
м
21 апреля, ср
ср2100:00+9ююв4996100 1.0 1001444
03:00+8юз3695100 1.4 1001452
06:00+6з6991100 0.4 1006766
09:00+7зюз4788100 0.5 1010451
12:00+9зюз4884100 0.6 1012829
15:00+12зюз81057100 0.9 10131963
18:00+11зюз586353 0.1 10151144
21:00+7юз34805 0.2 101760
22 апреля, чт
чт2200:00+7юз368469 0.2 101895
03:00+6зюз33875 0.2 101959
06:00+5юз22885 0.0 102029
09:00+12ююз35645 0.0 1021539
12:00+15юз45489 0.1 10211825
15:00+16юз4545100 0.1 10201908
18:00+14юз1160100 0.0 102011
21:00+12ю3464100 0.1 102169
23 апреля, пт
пт2300:00+11ю346997 0.0 102181
03:00+10ю3572100 0.0 1020101
06:00+10ю3578100 0.0 1021136
09:00+14ююз57645 0.4 1020669
12:00+16ююз684826 1.2 10192045
15:00+16ююз5749100 1.3 10171804
18:00+15ю365899 0.3 1016323
21:00+13ю4106483 0.3 1016286
24 апреля, сб
сб2400:00+10ююз51272100 0.2 1014392
03:00+9ююз51378100 0.3 1013595
06:00+5зсз71089100 0.4 1014435
09:00+6зсз688197 1.2 1015836
12:00+9з6858100 0.1 10161627
15:00+12зсз71035100 0.2 10152935
18:00+10зсз574712 0.0 10151622
21:00+5зсз3780100 0.4 1017177
25 апреля, вс
вс2500:00+4зюз4891100 0.8 1017603
03:00+5зюз479099 1.3 1016554
06:00+3зюз48915 0.3 1017298
09:00+7з57605 0.3 10171157
12:00+10зюз684489 0.1 10172308
15:00+11з71037100 0.1 10162926
18:00+10з684832 0.0 10161825
21:00+5з236854 0.0 101733